Torna al catalogo

CZ-6A DEB

AttivoPO
NORAD 60812·DEBRIS·🇨🇳 China

Lanciato Aug 6, 2024 da Taiyuan Satellite Launch Center

Loading…

Prossimi Passaggi (prossime 24 ore)

TLE

AggiornatoSource: Space-Track

Epoca: Sep 14, 2026, 10:47 UTC

1 60812U 24140GP  26257.44962375  .00000707  00000-0  18352-3 0  9996
2 60812  88.9752 258.8594 0087850   3.5783 356.6030 14.46375802110334

Traccia CZ-6A DEB in tempo reale con AllMySat

Download on the App Store